contact:dominique.lefevre@mio.osupytheas.fr, maurice.libes@osupytheas.fr, didier.mallarino@osupytheas.fr
Project:EMSO http://www.emso-fr.org/EMSO-France
Depth: 2436.0 m
Title:EMSO Ligure Ouest : Data MII capteur MICROCAT
DateTime_Computer,Latitude,Longitude,Temperature,Conductivity,Pressure,DateTime_Instrument
DateTime_Computer,Latitude,Longitude,degC,S m-1,dbar,DateTime_Instrument
2020-05-02T00:00:49Z,42.805,6.029,13.2997,4.60021,2470.077,2020-5-02T02:01:30Z
2020-05-02T00:03:53Z,42.805,6.029,13.2996,4.60004,2470.087,2020-5-02T02:04:34Z
2020-05-02T00:06:56Z,42.805,6.029,13.2986,4.60036,2470.1,2020-5-02T02:07:37Z
2020-05-02T00:09:59Z,42.805,6.029,13.3006,4.60009,2470.063,2020-5-02T02:10:40Z
2020-05-02T00:13:03Z,42.805,6.029,13.2998,4.59999,2470.11,2020-5-02T02:13:44Z
2020-05-02T00:16:06Z,42.805,6.029,13.2988,4.60034,2470.124,2020-5-02T02:16:47Z
2020-05-02T00:19:09Z,42.805,6.029,13.2999,4.59988,2470.087,2020-5-02T02:19:50Z
2020-05-02T00:22:13Z,42.805,6.029,13.3001,4.60003,2470.124,2020-5-02T02:22:53Z
2020-05-02T00:25:16Z,42.805,6.029,13.3005,4.60010,2470.11,2020-5-02T02:25:57Z
2020-05-02T00:28:19Z,42.805,6.029,13.2994,4.59987,2470.124,2020-5-02T02:29:00Z
2020-05-02T00:31:22Z,42.805,6.029,13.2990,4.59984,2470.147,2020-5-02T02:32:03Z
2020-05-02T00:34:25Z,42.805,6.029,13.2988,4.59992,2470.147,2020-5-02T02:35:06Z
2020-05-02T00:37:29Z,42.805,6.029,13.2992,4.59981,2470.11,2020-5-02T02:38:10Z
2020-05-02T00:40:32Z,42.805,6.029,13.2975,4.59995,2470.11,2020-5-02T02:41:13Z
2020-05-02T00:43:35Z,42.805,6.029,13.2979,4.60000,2470.11,2020-5-02T02:44:16Z
2020-05-02T00:46:38Z,42.805,6.029,13.2981,4.59978,2470.11,2020-5-02T02:47:19Z
2020-05-02T00:49:42Z,42.805,6.029,13.2986,4.60011,2470.087,2020-5-02T02:50:22Z
2020-05-02T00:52:45Z,42.805,6.029,13.2983,4.60002,2470.147,2020-5-02T02:53:26Z
2020-05-02T00:55:48Z,42.805,6.029,13.2972,4.59985,2470.133,2020-5-02T02:56:29Z
2020-05-02T00:58:51Z,42.805,6.029,13.2971,4.59991,2470.124,2020-5-02T02:59:32Z
2020-05-02T01:01:55Z,42.805,6.029,13.2976,4.59992,2470.11,2020-5-02T03:02:35Z
2020-05-02T01:04:58Z,42.805,6.029,13.2977,4.59988,2470.11,2020-5-02T03:05:39Z
2020-05-02T01:08:01Z,42.805,6.029,13.2986,4.59992,2470.1,2020-5-02T03:08:42Z
2020-05-02T01:11:04Z,42.805,6.029,13.2979,4.59999,2470.11,2020-5-02T03:11:45Z
2020-05-02T01:14:07Z,42.805,6.029,13.2990,4.59993,2470.124,2020-5-02T03:14:48Z
2020-05-02T01:17:11Z,42.805,6.029,13.2986,4.60006,2470.133,2020-5-02T03:17:52Z
2020-05-02T01:20:14Z,42.805,6.029,13.2990,4.59992,2470.171,2020-5-02T03:20:55Z
2020-05-02T01:23:17Z,42.805,6.029,13.2993,4.59975,2470.147,2020-5-02T03:23:58Z
2020-05-02T01:26:20Z,42.805,6.029,13.2992,4.60016,2470.156,2020-5-02T03:27:01Z
2020-05-02T01:29:24Z,42.805,6.029,13.2977,4.59983,2470.147,2020-5-02T03:30:04Z
2020-05-02T01:32:27Z,42.805,6.029,13.2996,4.59983,2470.171,2020-5-02T03:33:08Z
2020-05-02T01:35:30Z,42.805,6.029,13.2983,4.60011,2470.11,2020-5-02T03:36:11Z
2020-05-02T01:38:33Z,42.805,6.029,13.2982,4.59992,2470.133,2020-5-02T03:39:14Z
2020-05-02T01:41:37Z,42.805,6.029,13.2987,4.59978,2470.147,2020-5-02T03:42:17Z
2020-05-02T01:44:40Z,42.805,6.029,13.2981,4.59986,2470.133,2020-5-02T03:45:21Z
2020-05-02T01:47:43Z,42.805,6.029,13.2984,4.59997,2470.124,2020-5-02T03:48:24Z
2020-05-02T01:50:46Z,42.805,6.029,13.2985,4.59990,2470.11,2020-5-02T03:51:27Z
2020-05-02T01:53:50Z,42.805,6.029,13.2987,4.60010,2470.147,2020-5-02T03:54:30Z
2020-05-02T01:56:53Z,42.805,6.029,13.2983,4.59996,2470.147,2020-5-02T03:57:34Z
2020-05-02T01:59:56Z,42.805,6.029,13.2979,4.59991,2470.133,2020-5-02T04:00:37Z
2020-05-02T02:02:59Z,42.805,6.029,13.2974,4.59980,2470.171,2020-5-02T04:03:40Z
2020-05-02T02:06:03Z,42.805,6.029,13.2986,4.59992,2470.133,2020-5-02T04:06:43Z
2020-05-02T02:09:06Z,42.805,6.029,13.2981,4.59999,2470.124,2020-5-02T04:09:47Z
2020-05-02T02:12:09Z,42.805,6.029,13.2976,4.59988,2470.147,2020-5-02T04:12:50Z
2020-05-02T02:15:13Z,42.805,6.029,13.2977,4.59988,2470.133,2020-5-02T04:15:53Z
2020-05-02T02:18:16Z,42.805,6.029,13.2984,4.60001,2470.133,2020-5-02T04:18:57Z
2020-05-02T02:21:19Z,42.805,6.029,13.2993,4.59985,2470.171,2020-5-02T04:22:00Z
2020-05-02T02:24:22Z,42.805,6.029,13.2991,4.59997,2470.147,2020-5-02T04:25:03Z
2020-05-02T02:27:26Z,42.805,6.029,13.2976,4.59997,2470.147,2020-5-02T04:28:07Z
2020-05-02T02:30:29Z,42.805,6.029,13.2983,4.59999,2470.133,2020-5-02T04:31:10Z
2020-05-02T02:33:32Z,42.805,6.029,13.2970,4.59995,2470.133,2020-5-02T04:34:13Z
2020-05-02T02:36:35Z,42.805,6.029,13.2973,4.59981,2470.171,2020-5-02T04:37:16Z
2020-05-02T02:39:39Z,42.805,6.029,13.2974,4.59988,2470.133,2020-5-02T04:40:20Z
2020-05-02T02:42:42Z,42.805,6.029,13.2982,4.59996,2470.147,2020-5-02T04:43:23Z
2020-05-02T02:45:45Z,42.805,6.029,13.2979,4.59978,2470.133,2020-5-02T04:46:26Z
2020-05-02T02:48:49Z,42.805,6.029,13.2990,4.59997,2470.133,2020-5-02T04:49:29Z
2020-05-02T02:51:52Z,42.805,6.029,13.2981,4.59998,2470.147,2020-5-02T04:52:33Z
2020-05-02T02:54:55Z,42.805,6.029,13.2993,4.59995,2470.156,2020-5-02T04:55:36Z
2020-05-02T02:57:58Z,42.805,6.029,13.2995,4.59985,2470.156,2020-5-02T04:58:39Z
2020-05-02T03:01:02Z,42.805,6.029,13.2976,4.60012,2470.133,2020-5-02T05:01:42Z
2020-05-02T03:04:05Z,42.805,6.029,13.2982,4.59979,2470.18,2020-5-02T05:04:46Z
2020-05-02T03:07:08Z,42.805,6.029,13.2985,4.59984,2470.156,2020-5-02T05:07:49Z
2020-05-02T03:10:11Z,42.805,6.029,13.2990,4.59986,2470.156,2020-5-02T05:10:52Z
2020-05-02T03:13:15Z,42.805,6.029,13.2984,4.59974,2470.171,2020-5-02T05:13:56Z
2020-05-02T03:16:18Z,42.805,6.029,13.2981,4.59976,2470.156,2020-5-02T05:16:59Z
2020-05-02T03:19:21Z,42.805,6.029,13.2988,4.59980,2470.156,2020-5-02T05:20:02Z
2020-05-02T03:22:24Z,42.805,6.029,13.2986,4.60019,2470.156,2020-5-02T05:23:05Z
2020-05-02T03:25:28Z,42.805,6.029,13.2985,4.59992,2470.147,2020-5-02T05:26:08Z
2020-05-02T03:28:31Z,42.805,6.029,13.2986,4.59987,2470.171,2020-5-02T05:29:12Z
2020-05-02T03:31:34Z,42.805,6.029,13.2993,4.59983,2470.171,2020-5-02T05:32:15Z
2020-05-02T03:34:37Z,42.805,6.029,13.2978,4.59987,2470.156,2020-5-02T05:35:18Z
2020-05-02T03:37:41Z,42.805,6.029,13.2972,4.59986,2470.156,2020-5-02T05:38:21Z
2020-05-02T03:40:44Z,42.805,6.029,13.2977,4.59999,2470.133,2020-5-02T05:41:25Z
2020-05-02T03:43:47Z,42.805,6.029,13.2986,4.59983,2470.171,2020-5-02T05:44:28Z
2020-05-02T03:46:50Z,42.805,6.029,13.2986,4.60026,2470.147,2020-5-02T05:47:31Z
2020-05-02T03:49:53Z,42.805,6.029,13.2989,4.59978,2470.171,2020-5-02T05:50:34Z
2020-05-02T03:52:57Z,42.805,6.029,13.2986,4.59991,2470.147,2020-5-02T05:53:38Z
2020-05-02T03:56:00Z,42.805,6.029,13.2981,4.59996,2470.156,2020-5-02T05:56:41Z
2020-05-02T03:59:03Z,42.805,6.029,13.2981,4.59986,2470.156,2020-5-02T05:59:44Z
2020-05-02T04:02:06Z,42.805,6.029,13.2979,4.59988,2470.18,2020-5-02T06:02:47Z
2020-05-02T04:05:09Z,42.805,6.029,13.2977,4.60003,2470.147,2020-5-02T06:05:50Z
2020-05-02T04:08:13Z,42.805,6.029,13.2982,4.59981,2470.171,2020-5-02T06:08:54Z
2020-05-02T04:11:16Z,42.805,6.029,13.2985,4.59976,2470.133,2020-5-02T06:11:57Z
2020-05-02T04:14:19Z,42.805,6.029,13.2975,4.59993,2470.156,2020-5-02T06:15:00Z
2020-05-02T04:17:23Z,42.805,6.029,13.2978,4.59986,2470.156,2020-5-02T06:18:03Z
2020-05-02T04:20:26Z,42.805,6.029,13.2982,4.60021,2470.147,2020-5-02T06:21:07Z
2020-05-02T04:23:29Z,42.805,6.029,13.2986,4.59996,2470.171,2020-5-02T06:24:10Z
2020-05-02T04:26:32Z,42.805,6.029,13.2994,4.59996,2470.156,2020-5-02T06:27:13Z
2020-05-02T04:29:36Z,42.805,6.029,13.2986,4.60009,2470.147,2020-5-02T06:30:16Z
2020-05-02T04:32:39Z,42.805,6.029,13.2981,4.59980,2470.156,2020-5-02T06:33:20Z
2020-05-02T04:35:42Z,42.805,6.029,13.2976,4.59994,2470.133,2020-5-02T06:36:23Z
2020-05-02T04:38:45Z,42.805,6.029,13.2981,4.59992,2470.11,2020-5-02T06:39:26Z
2020-05-02T04:41:49Z,42.805,6.029,13.2985,4.59986,2470.133,2020-5-02T06:42:30Z
2020-05-02T04:44:52Z,42.805,6.029,13.2997,4.59999,2470.11,2020-5-02T06:45:33Z
2020-05-02T04:47:55Z,42.805,6.029,13.2979,4.59996,2470.147,2020-5-02T06:48:36Z
2020-05-02T04:50:58Z,42.805,6.029,13.2983,4.60003,2470.147,2020-5-02T06:51:39Z
2020-05-02T04:54:02Z,42.805,6.029,13.2995,4.60010,2470.194,2020-5-02T06:54:42Z
2020-05-02T04:57:05Z,42.805,6.029,13.2990,4.60030,2470.124,2020-5-02T06:57:46Z
2020-05-02T05:00:08Z,42.805,6.029,13.2995,4.59998,2470.133,2020-5-02T07:00:49Z
2020-05-02T05:03:11Z,42.805,6.029,13.2993,4.59991,2470.124,2020-5-02T07:03:52Z
2020-05-02T05:06:14Z,42.805,6.029,13.2976,4.59996,2470.133,2020-5-02T07:06:55Z
2020-05-02T05:09:18Z,42.805,6.029,13.2976,4.59989,2470.133,2020-5-02T07:09:59Z
2020-05-02T05:12:21Z,42.805,6.029,13.2975,4.59991,2470.11,2020-5-02T07:13:02Z
2020-05-02T05:15:24Z,42.805,6.029,13.2974,4.59992,2470.133,2020-5-02T07:16:05Z
2020-05-02T05:18:27Z,42.805,6.029,13.2993,4.59983,2470.133,2020-5-02T07:19:08Z
2020-05-02T05:21:30Z,42.805,6.029,13.2981,4.59988,2470.087,2020-5-02T07:22:11Z
2020-05-02T05:24:34Z,42.805,6.029,13.2976,4.59985,2470.1,2020-5-02T07:25:15Z
2020-05-02T05:27:37Z,42.805,6.029,13.2980,4.59993,2470.087,2020-5-02T07:28:18Z
2020-05-02T05:30:40Z,42.805,6.029,13.2989,4.59984,2470.087,2020-5-02T07:31:21Z
2020-05-02T05:33:43Z,42.805,6.029,13.2974,4.59987,2470.124,2020-5-02T07:34:24Z
2020-05-02T05:36:47Z,42.805,6.029,13.2978,4.59979,2470.096,2020-5-02T07:37:28Z
2020-05-02T05:39:50Z,42.805,6.029,13.2981,4.59978,2470.11,2020-5-02T07:40:31Z
2020-05-02T05:42:53Z,42.805,6.029,13.2982,4.59984,2470.11,2020-5-02T07:43:34Z
2020-05-02T05:45:57Z,42.805,6.029,13.2990,4.59994,2470.11,2020-5-02T07:46:37Z
2020-05-02T05:49:00Z,42.805,6.029,13.2979,4.59986,2470.087,2020-5-02T07:49:41Z
2020-05-02T05:52:03Z,42.805,6.029,13.2978,4.59994,2470.124,2020-5-02T07:52:44Z
2020-05-02T05:55:06Z,42.805,6.029,13.2978,4.59988,2470.11,2020-5-02T07:55:47Z
2020-05-02T05:58:09Z,42.805,6.029,13.2983,4.59992,2470.1,2020-5-02T07:58:50Z
2020-05-02T06:01:13Z,42.805,6.029,13.2979,4.59987,2470.1,2020-5-02T08:01:53Z
2020-05-02T06:04:16Z,42.805,6.029,13.2968,4.59986,2470.124,2020-5-02T08:04:57Z
2020-05-02T06:07:19Z,42.805,6.029,13.2976,4.59991,2470.077,2020-5-02T08:08:00Z
2020-05-02T06:10:23Z,42.805,6.029,13.2973,4.59988,2470.11,2020-5-02T08:11:04Z
2020-05-02T06:13:26Z,42.805,6.029,13.2983,4.59978,2470.063,2020-5-02T08:14:07Z
2020-05-02T06:16:29Z,42.805,6.029,13.2980,4.59991,2470.1,2020-5-02T08:17:10Z
2020-05-02T06:19:33Z,42.805,6.029,13.2979,4.59988,2470.087,2020-5-02T08:20:13Z
2020-05-02T06:22:36Z,42.805,6.029,13.2979,4.60007,2470.077,2020-5-02T08:23:17Z
2020-05-02T06:25:39Z,42.805,6.029,13.2991,4.60021,2470.087,2020-5-02T08:26:20Z
2020-05-02T06:28:42Z,42.805,6.029,13.2985,4.60009,2470.1,2020-5-02T08:29:23Z
2020-05-02T06:31:46Z,42.805,6.029,13.3007,4.60009,2470.1,2020-5-02T08:32:27Z
2020-05-02T06:34:49Z,42.805,6.029,13.2994,4.60015,2470.087,2020-5-02T08:35:30Z
2020-05-02T06:37:52Z,42.805,6.029,13.2990,4.59985,2470.087,2020-5-02T08:38:33Z
2020-05-02T06:40:55Z,42.805,6.029,13.3004,4.60009,2470.077,2020-5-02T08:41:36Z
2020-05-02T06:43:59Z,42.805,6.029,13.2975,4.59978,2470.087,2020-5-02T08:44:40Z
2020-05-02T06:47:02Z,42.805,6.029,13.2978,4.59997,2470.063,2020-5-02T08:47:43Z
2020-05-02T06:50:05Z,42.805,6.029,13.2980,4.59981,2470.1,2020-5-02T08:50:46Z
2020-05-02T06:53:08Z,42.805,6.029,13.2984,4.59989,2470.063,2020-5-02T08:53:49Z
2020-05-02T06:56:11Z,42.805,6.029,13.2989,4.59994,2470.077,2020-5-02T08:56:52Z
2020-05-02T06:59:15Z,42.805,6.029,13.2986,4.59989,2470.087,2020-5-02T08:59:56Z
2020-05-02T07:02:18Z,42.805,6.029,13.2979,4.60001,2470.053,2020-5-02T09:02:59Z
2020-05-02T07:05:21Z,42.805,6.029,13.2979,4.59996,2470.04,2020-5-02T09:06:02Z
2020-05-02T07:08:25Z,42.805,6.029,13.2978,4.59981,2470.04,2020-5-02T09:09:06Z
2020-05-02T07:11:28Z,42.805,6.029,13.2980,4.59978,2470.053,2020-5-02T09:12:09Z
2020-05-02T07:14:31Z,42.805,6.029,13.2986,4.60033,2470.017,2020-5-02T09:15:12Z
2020-05-02T07:17:35Z,42.805,6.029,13.2983,4.59993,2470.04,2020-5-02T09:18:15Z
2020-05-02T07:20:38Z,42.805,6.029,13.2995,4.59995,2470.04,2020-5-02T09:21:19Z
2020-05-02T07:23:41Z,42.805,6.029,13.2978,4.60015,2470.063,2020-5-02T09:24:22Z
2020-05-02T07:26:44Z,42.805,6.029,13.2982,4.60000,2470.077,2020-5-02T09:27:25Z
2020-05-02T07:29:47Z,42.805,6.029,13.2990,4.59984,2470.04,2020-5-02T09:30:28Z
2020-05-02T07:32:51Z,42.805,6.029,13.2982,4.59986,2470.017,2020-5-02T09:33:32Z
2020-05-02T07:35:54Z,42.805,6.029,13.2982,4.59993,2470.077,2020-5-02T09:36:35Z
2020-05-02T07:38:57Z,42.805,6.029,13.2983,4.60011,2470.04,2020-5-02T09:39:38Z
2020-05-02T07:42:01Z,42.805,6.029,13.2983,4.59991,2470.04,2020-5-02T09:42:41Z
2020-05-02T07:45:04Z,42.805,6.029,13.2989,4.59987,2470.063,2020-5-02T09:45:45Z
2020-05-02T07:48:07Z,42.805,6.029,13.2991,4.60016,2470.077,2020-5-02T09:48:48Z
2020-05-02T07:51:10Z,42.805,6.029,13.2998,4.59986,2470.077,2020-5-02T09:51:51Z
2020-05-02T07:54:13Z,42.805,6.029,13.2993,4.60009,2470.017,2020-5-02T09:54:54Z
2020-05-02T07:57:17Z,42.805,6.029,13.2985,4.60014,2470.04,2020-5-02T09:57:58Z
2020-05-02T08:00:20Z,42.805,6.029,13.2987,4.60006,2470.04,2020-5-02T10:01:01Z
2020-05-02T08:03:23Z,42.805,6.029,13.3003,4.60000,2470.053,2020-5-02T10:04:04Z
2020-05-02T08:06:26Z,42.805,6.029,13.3010,4.60033,2470.053,2020-5-02T10:07:07Z
2020-05-02T08:09:30Z,42.805,6.029,13.3008,4.59994,2470.007,2020-5-02T10:10:10Z
2020-05-02T08:12:33Z,42.805,6.029,13.3015,4.60005,2470.017,2020-5-02T10:13:14Z
2020-05-02T08:15:36Z,42.805,6.029,13.3011,4.59996,2470.007,2020-5-02T10:16:17Z
2020-05-02T08:18:39Z,42.805,6.029,13.2982,4.60002,2470.017,2020-5-02T10:19:20Z
2020-05-02T08:21:43Z,42.805,6.029,13.2984,4.59994,2469.993,2020-5-02T10:22:24Z
2020-05-02T08:24:46Z,42.805,6.029,13.3004,4.60002,2469.993,2020-5-02T10:25:27Z
2020-05-02T08:27:49Z,42.805,6.029,13.2995,4.60017,2470.053,2020-5-02T10:28:30Z
2020-05-02T08:30:52Z,42.805,6.029,13.3015,4.60031,2470.007,2020-5-02T10:31:33Z
2020-05-02T08:33:56Z,42.805,6.029,13.3014,4.60016,2469.956,2020-5-02T10:34:37Z
2020-05-02T08:36:59Z,42.805,6.029,13.3015,4.60015,2470.007,2020-5-02T10:37:40Z
2020-05-02T08:40:03Z,42.805,6.029,13.3009,4.60016,2469.993,2020-5-02T10:40:44Z
2020-05-02T08:43:06Z,42.805,6.029,13.3012,4.60031,2469.993,2020-5-02T10:43:47Z
2020-05-02T08:46:09Z,42.805,6.029,13.3021,4.59989,2469.993,2020-5-02T10:46:50Z
2020-05-02T08:49:12Z,42.805,6.029,13.3017,4.60006,2469.97,2020-5-02T10:49:53Z
2020-05-02T08:52:16Z,42.805,6.029,13.3017,4.60046,2470.03,2020-5-02T10:52:56Z
2020-05-02T08:55:19Z,42.805,6.029,13.3026,4.60020,2470.017,2020-5-02T10:56:00Z
2020-05-02T08:58:22Z,42.805,6.029,13.2982,4.60045,2469.984,2020-5-02T10:59:03Z
2020-05-02T09:01:25Z,42.805,6.029,13.3007,4.60102,2470.007,2020-5-02T11:02:06Z
2020-05-02T09:04:28Z,42.805,6.029,13.3034,4.60050,2470.03,2020-5-02T11:05:09Z
2020-05-02T09:07:32Z,42.805,6.029,13.3033,4.60044,2470.007,2020-5-02T11:08:13Z
2020-05-02T09:10:35Z,42.805,6.029,13.3041,4.60046,2470.007,2020-5-02T11:11:16Z
2020-05-02T09:13:38Z,42.805,6.029,13.3038,4.60020,2470.007,2020-5-02T11:14:19Z
2020-05-02T09:16:41Z,42.805,6.029,13.3025,4.60055,2470.007,2020-5-02T11:17:22Z
2020-05-02T09:19:45Z,42.805,6.029,13.3040,4.60017,2469.993,2020-5-02T11:20:25Z
2020-05-02T09:22:48Z,42.805,6.029,13.3047,4.60009,2469.984,2020-5-02T11:23:29Z
2020-05-02T09:25:51Z,42.805,6.029,13.3028,4.60033,2469.97,2020-5-02T11:26:32Z
2020-05-02T09:28:55Z,42.805,6.029,13.3035,4.60054,2469.984,2020-5-02T11:29:35Z
2020-05-02T09:31:58Z,42.805,6.029,13.3025,4.60050,2469.984,2020-5-02T11:32:39Z
2020-05-02T09:35:01Z,42.805,6.029,13.3006,4.60051,2470.007,2020-5-02T11:35:42Z
2020-05-02T09:38:04Z,42.805,6.029,13.3014,4.60049,2470.007,2020-5-02T11:38:45Z
2020-05-02T09:41:08Z,42.805,6.029,13.3001,4.60042,2470.017,2020-5-02T11:41:48Z
2020-05-02T09:44:11Z,42.805,6.029,13.2986,4.60052,2469.993,2020-5-02T11:44:52Z
2020-05-02T09:47:14Z,42.805,6.029,13.2989,4.60055,2469.97,2020-5-02T11:47:55Z
2020-05-02T09:50:18Z,42.805,6.029,13.2995,4.60070,2469.993,2020-5-02T11:50:58Z
2020-05-02T09:53:21Z,42.805,6.029,13.2988,4.60064,2469.97,2020-5-02T11:54:02Z
2020-05-02T09:56:24Z,42.805,6.029,13.2996,4.60060,2469.956,2020-5-02T11:57:05Z
2020-05-02T09:59:27Z,42.805,6.029,13.3002,4.60044,2469.97,2020-5-02T12:00:08Z
2020-05-02T10:02:31Z,42.805,6.029,13.2999,4.60037,2469.97,2020-5-02T12:03:11Z
2020-05-02T10:05:34Z,42.805,6.029,13.3006,4.60054,2469.97,2020-5-02T12:06:15Z
2020-05-02T10:08:37Z,42.805,6.029,13.2995,4.60041,2469.97,2020-5-02T12:09:18Z
2020-05-02T10:11:40Z,42.805,6.029,13.3019,4.60030,2469.984,2020-5-02T12:12:21Z
2020-05-02T10:14:43Z,42.805,6.029,13.2992,4.60039,2469.993,2020-5-02T12:15:24Z
2020-05-02T10:17:47Z,42.805,6.029,13.2996,4.60054,2469.993,2020-5-02T12:18:28Z
2020-05-02T10:20:50Z,42.805,6.029,13.2991,4.60033,2470.017,2020-5-02T12:21:31Z
2020-05-02T10:23:53Z,42.805,6.029,13.3027,4.60057,2470.007,2020-5-02T12:24:34Z
2020-05-02T10:26:56Z,42.805,6.029,13.2995,4.60037,2469.993,2020-5-02T12:27:37Z
2020-05-02T10:30:00Z,42.805,6.029,13.2998,4.60062,2469.97,2020-5-02T12:30:41Z
2020-05-02T10:33:03Z,42.805,6.029,13.2987,4.60040,2469.956,2020-5-02T12:33:44Z
2020-05-02T10:36:06Z,42.805,6.029,13.2998,4.60037,2469.984,2020-5-02T12:36:47Z
2020-05-02T10:39:10Z,42.805,6.029,13.3000,4.60052,2470.007,2020-5-02T12:39:50Z
2020-05-02T10:42:13Z,42.805,6.029,13.2982,4.60023,2470.007,2020-5-02T12:42:54Z
2020-05-02T10:45:16Z,42.805,6.029,13.3006,4.60029,2470.007,2020-5-02T12:45:57Z
2020-05-02T10:48:19Z,42.805,6.029,13.3014,4.59999,2469.984,2020-5-02T12:49:00Z
2020-05-02T10:51:23Z,42.805,6.029,13.3011,4.60016,2469.984,2020-5-02T12:52:04Z
2020-05-02T10:54:26Z,42.805,6.029,13.2988,4.60041,2470.007,2020-5-02T12:55:07Z
2020-05-02T10:57:29Z,42.805,6.029,13.3019,4.60054,2469.984,2020-5-02T12:58:10Z
2020-05-02T11:00:32Z,42.805,6.029,13.2989,4.60054,2470.017,2020-5-02T13:01:13Z
2020-05-02T11:03:36Z,42.805,6.029,13.2990,4.60042,2469.993,2020-5-02T13:04:16Z
2020-05-02T11:06:39Z,42.805,6.029,13.2993,4.60032,2469.97,2020-5-02T13:07:20Z
2020-05-02T11:09:42Z,42.805,6.029,13.2982,4.60033,2469.993,2020-5-02T13:10:23Z
2020-05-02T11:12:45Z,42.805,6.029,13.2977,4.60022,2470.007,2020-5-02T13:13:26Z
2020-05-02T11:15:49Z,42.805,6.029,13.2977,4.60026,2470.021,2020-5-02T13:16:30Z
2020-05-02T11:18:52Z,42.805,6.029,13.2982,4.60014,2470.007,2020-5-02T13:19:33Z
2020-05-02T11:21:55Z,42.805,6.029,13.2982,4.60016,2469.97,2020-5-02T13:22:36Z
2020-05-02T11:24:58Z,42.805,6.029,13.2984,4.60019,2469.97,2020-5-02T13:25:39Z
2020-05-02T11:28:02Z,42.805,6.029,13.2987,4.60018,2470.017,2020-5-02T13:28:43Z
2020-05-02T11:31:05Z,42.805,6.029,13.2982,4.60052,2470.007,2020-5-02T13:31:46Z
2020-05-02T11:34:08Z,42.805,6.029,13.2993,4.60037,2470.007,2020-5-02T13:34:49Z
2020-05-02T11:37:11Z,42.805,6.029,13.2989,4.60011,2470.017,2020-5-02T13:37:52Z
2020-05-02T11:40:15Z,42.805,6.029,13.2982,4.60022,2470.03,2020-5-02T13:40:55Z
2020-05-02T11:43:18Z,42.805,6.029,13.2979,4.60007,2469.97,2020-5-02T13:43:59Z
2020-05-02T11:46:21Z,42.805,6.029,13.2982,4.60031,2469.984,2020-5-02T13:47:02Z
2020-05-02T11:49:24Z,42.805,6.029,13.2981,4.60032,2469.993,2020-5-02T13:50:05Z
2020-05-02T11:52:27Z,42.805,6.029,13.2991,4.60026,2469.97,2020-5-02T13:53:08Z
2020-05-02T11:55:31Z,42.805,6.029,13.2986,4.60026,2470.03,2020-5-02T13:56:11Z
2020-05-02T11:58:34Z,42.805,6.029,13.2982,4.60025,2470.007,2020-5-02T13:59:15Z
2020-05-02T12:01:37Z,42.805,6.029,13.2979,4.60021,2470.017,2020-5-02T14:02:18Z
2020-05-02T12:04:40Z,42.805,6.029,13.2991,4.60021,2469.993,2020-5-02T14:05:21Z
2020-05-02T12:07:44Z,42.805,6.029,13.2982,4.60037,2470.017,2020-5-02T14:08:24Z
2020-05-02T12:10:47Z,42.805,6.029,13.2982,4.60031,2470.03,2020-5-02T14:11:28Z
2020-05-02T12:13:50Z,42.805,6.029,13.2983,4.60020,2470.03,2020-5-02T14:14:31Z
2020-05-02T12:16:53Z,42.805,6.029,13.2975,4.59998,2469.993,2020-5-02T14:17:34Z
2020-05-02T12:19:57Z,42.805,6.029,13.2978,4.60008,2470.017,2020-5-02T14:20:37Z
2020-05-02T12:23:00Z,42.805,6.029,13.2981,4.60017,2469.993,2020-5-02T14:23:41Z
2020-05-02T12:26:03Z,42.805,6.029,13.2976,4.60026,2469.993,2020-5-02T14:26:44Z
2020-05-02T12:29:06Z,42.805,6.029,13.2978,4.60006,2470.017,2020-5-02T14:29:47Z
2020-05-02T12:32:10Z,42.805,6.029,13.2979,4.60000,2470.03,2020-5-02T14:32:51Z
2020-05-02T12:35:13Z,42.805,6.029,13.2982,4.60022,2469.993,2020-5-02T14:35:54Z
2020-05-02T12:38:16Z,42.805,6.029,13.2982,4.60016,2470.03,2020-5-02T14:38:57Z
2020-05-02T12:41:19Z,42.805,6.029,13.2977,4.60011,2470.017,2020-5-02T14:42:00Z
2020-05-02T12:44:23Z,42.805,6.029,13.2976,4.60003,2469.993,2020-5-02T14:45:04Z
2020-05-02T12:47:26Z,42.805,6.029,13.2988,4.60010,2469.993,2020-5-02T14:48:07Z
2020-05-02T12:50:29Z,42.805,6.029,13.2984,4.60027,2470.017,2020-5-02T14:51:10Z
2020-05-02T12:53:32Z,42.805,6.029,13.2978,4.60010,2469.993,2020-5-02T14:54:13Z
2020-05-02T12:56:36Z,42.805,6.029,13.2984,4.60016,2470.017,2020-5-02T14:57:17Z
2020-05-02T12:59:39Z,42.805,6.029,13.2983,4.60007,2470.017,2020-5-02T15:00:20Z
2020-05-02T13:02:42Z,42.805,6.029,13.2974,4.60006,2470.007,2020-5-02T15:03:23Z
2020-05-02T13:05:46Z,42.805,6.029,13.2984,4.60004,2469.993,2020-5-02T15:06:26Z
2020-05-02T13:08:49Z,42.805,6.029,13.2977,4.60001,2470.053,2020-5-02T15:09:30Z
2020-05-02T13:11:52Z,42.805,6.029,13.2979,4.60009,2470.04,2020-5-02T15:12:33Z
2020-05-02T13:14:56Z,42.805,6.029,13.2981,4.60006,2469.984,2020-5-02T15:15:36Z
2020-05-02T13:17:59Z,42.805,6.029,13.2979,4.59999,2469.993,2020-5-02T15:18:40Z
2020-05-02T13:21:02Z,42.805,6.029,13.2990,4.60017,2470.04,2020-5-02T15:21:43Z
2020-05-02T13:24:05Z,42.805,6.029,13.2978,4.60010,2470.04,2020-5-02T15:24:46Z
2020-05-02T13:27:09Z,42.805,6.029,13.2978,4.60031,2470.007,2020-5-02T15:27:50Z
2020-05-02T13:30:12Z,42.805,6.029,13.2974,4.59999,2470.017,2020-5-02T15:30:53Z
2020-05-02T13:33:15Z,42.805,6.029,13.2982,4.59994,2470.007,2020-5-02T15:33:56Z
2020-05-02T13:36:18Z,42.805,6.029,13.2973,4.59991,2470.017,2020-5-02T15:36:59Z
2020-05-02T13:39:22Z,42.805,6.029,13.2975,4.60005,2470.017,2020-5-02T15:40:03Z
2020-05-02T13:42:25Z,42.805,6.029,13.2973,4.59994,2470.017,2020-5-02T15:43:06Z
2020-05-02T13:45:28Z,42.805,6.029,13.2976,4.60003,2470.03,2020-5-02T15:46:09Z
2020-05-02T13:48:31Z,42.805,6.029,13.2975,4.59999,2469.993,2020-5-02T15:49:12Z
2020-05-02T13:51:35Z,42.805,6.029,13.2982,4.60017,2470.04,2020-5-02T15:52:16Z
2020-05-02T13:54:38Z,42.805,6.029,13.2975,4.60009,2470.007,2020-5-02T15:55:19Z
2020-05-02T13:57:41Z,42.805,6.029,13.2976,4.60014,2470.017,2020-5-02T15:58:22Z
2020-05-02T14:00:44Z,42.805,6.029,13.2980,4.60007,2470.04,2020-5-02T16:01:25Z
2020-05-02T14:03:48Z,42.805,6.029,13.2978,4.59998,2470.017,2020-5-02T16:04:29Z
2020-05-02T14:06:51Z,42.805,6.029,13.2979,4.60005,2470.053,2020-5-02T16:07:32Z
2020-05-02T14:09:54Z,42.805,6.029,13.2981,4.60003,2470.053,2020-5-02T16:10:35Z
2020-05-02T14:12:58Z,42.805,6.029,13.2982,4.60004,2470.03,2020-5-02T16:13:38Z
2020-05-02T14:16:01Z,42.805,6.029,13.2983,4.60035,2470.017,2020-5-02T16:16:42Z
2020-05-02T14:19:04Z,42.805,6.029,13.2977,4.60005,2470.087,2020-5-02T16:19:45Z
2020-05-02T14:22:07Z,42.805,6.029,13.2981,4.60014,2470.053,2020-5-02T16:22:48Z
2020-05-02T14:25:11Z,42.805,6.029,13.2976,4.59992,2470.04,2020-5-02T16:25:51Z
2020-05-02T14:28:14Z,42.805,6.029,13.2978,4.59999,2470.04,2020-5-02T16:28:55Z
2020-05-02T14:31:17Z,42.805,6.029,13.2979,4.59997,2470.053,2020-5-02T16:31:58Z
2020-05-02T14:34:20Z,42.805,6.029,13.2980,4.60004,2470.063,2020-5-02T16:35:01Z
2020-05-02T14:37:23Z,42.805,6.029,13.2976,4.59997,2470.017,2020-5-02T16:38:04Z
2020-05-02T14:40:27Z,42.805,6.029,13.2973,4.59994,2470.04,2020-5-02T16:41:08Z
2020-05-02T14:43:30Z,42.805,6.029,13.2974,4.60016,2470.04,2020-5-02T16:44:11Z
2020-05-02T14:46:33Z,42.805,6.029,13.2988,4.60020,2470.04,2020-5-02T16:47:14Z
2020-05-02T14:49:37Z,42.805,6.029,13.2971,4.60003,2470.03,2020-5-02T16:50:17Z
2020-05-02T14:52:40Z,42.805,6.029,13.2977,4.60004,2470.04,2020-5-02T16:53:21Z
2020-05-02T14:55:43Z,42.805,6.029,13.2974,4.59998,2470.063,2020-5-02T16:56:24Z
2020-05-02T14:58:46Z,42.805,6.029,13.2976,4.59999,2470.04,2020-5-02T16:59:27Z
2020-05-02T15:01:49Z,42.805,6.029,13.2979,4.59991,2470.04,2020-5-02T17:02:30Z
2020-05-02T15:04:53Z,42.805,6.029,13.2971,4.59989,2470.1,2020-5-02T17:05:34Z
2020-05-02T15:07:56Z,42.805,6.029,13.2975,4.60006,2470.026,2020-5-02T17:08:37Z
2020-05-02T15:10:59Z,42.805,6.029,13.2986,4.60021,2470.017,2020-5-02T17:11:40Z
2020-05-02T15:14:02Z,42.805,6.029,13.2983,4.60001,2470.077,2020-5-02T17:14:43Z